EW3148 Weather Reports


time (UTC)temp
F
wind
direction
speed
knots
gust
knots
rain 1hr
in
rain 24hr
in
rain mn
in
humidity
%
barometer
mb
20260906080456 81 207 1.7 9.6 0.00 0.00 0.00 78 1009.2
20260906075454 81 172 1.7 9.6 0.00 0.00 0.00 77 1009.3
20260906073336 81 199 2.6 7.8 0.00 0.00 0.00 76 1009.7
20260906072337 82 196 1.7 7.8 0.00 0.00 0.00 76 1009.7
20260906071335 82 203 0.9 4.3 0.00 0.00 0.00 75 1009.7
20260906070331 82 180 1.7 6.1 0.00 0.00 0.00 75 1009.9
20260906065347 82 164 2.6 7.0 0.00 0.00 0.00 75 1010.0
20260906064350 82 162 1.7 7.8 0.00 0.00 0.00 74 1010.1
20260906063335 83 163 2.6 7.8 0.00 0.00 0.00 74 1010.1
20260906062345 83 198 2.6 7.0 0.00 0.00 0.00 74 1010.2
20260906061405 83 197 2.6 7.0 0.00 0.00 0.00 73 1010.2
20260906055255 83 229 3.5 7.0 0.00 0.00 0.00 73 1010.3
20260906054235 84 176 1.7 7.0 0.00 0.00 0.00 72 1010.2
20260906052103 84 181 3.5 11.3 0.00 0.00 0.00 71 1010.1
20260906045859 85 159 4.3 10.4 0.00 0.00 0.00 69 1010.2
20260906044919 85 190 3.5 8.7 0.00 0.00 0.00 68 1010.3
20260906042749 85 200 3.5 9.6 0.00 0.00 0.00 67 1010.4
20260906041742 85 176 2.6 7.0 0.00 0.00 0.00 67 1010.4
20260906040750 86 171 1.7 7.0 0.00 0.00 0.00 67 1010.4
20260906034641 86 231 4.3 8.7 0.00 0.00 0.00 66 1010.3
20260906033659 87 177 2.6 9.6 0.00 0.00 0.00 65 1010.2
20260906032645 87 123 3.5 9.6 0.00 0.00 0.00 64 1010.2
20260906031647 87 140 4.3 9.6 0.00 0.00 0.00 62 1010.0
20260906030619 88 157 4.3 9.6 0.00 0.00 0.00 61 1009.7
20260906025544 89 163 3.5 9.6 0.00 0.00 0.00 58 1009.5
20260906024553 89 90 2.6 9.6 0.00 0.00 0.00 58 1009.3
20260906023549 89 132 2.6 6.1 0.00 0.00 0.00 57 1009.1
20260906022543 89 109 2.6 8.7 0.00 0.00 0.00 56 1008.7
20260906021514 90 134 1.7 6.1 0.00 0.00 0.00 55 1008.6
20260906015359 91 148 2.6 8.7 0.00 0.00 0.00 53 1008.3
20260906014420 91 148 1.7 7.0 0.00 0.00 0.00 52 1008.3
20260906013433 92 102 2.6 7.0 0.00 0.00 0.00 51 1008.2
20260906012445 92 117 2.6 7.8 0.00 0.00 0.00 49 1008.2
20260906011430 93 144 2.6 9.6 0.00 0.00 0.00 49 1008.1
20260906010424 94 109 2.6 9.6 0.00 0.00 0.00 47 1008.0
20260906005406 94 55 1.7 7.8 0.00 0.00 0.00 46 1008.0
20260906004341 95 194 2.6 7.0 0.00 0.00 0.00 42 1007.8
20260906003331 96 123 1.7 5.2 0.00 0.00 0.00 40 1007.8
20260906002311 96 159 1.7 5.2 0.00 0.00 0.00 40 1007.6
20260906001242 96 159 1.7 4.3 0.00 0.00 0.00 39 1007.6
20260906000256 96 83 2.6 6.1 0.00 0.00 0.00 39 1007.6
20260905234117 98 161 1.7 6.1 0.00 0.00 0.00 39 1007.6
20260905233129 98 149 2.6 6.1 0.00 0.00 0.00 38 1007.6
20260905230935 99 93 1.7 7.0 0.00 0.00 0.00 37 1007.7
20260905225932 100 109 0.9 5.2 0.00 0.00 0.00 37 1007.7
20260905224941 99 67 1.7 7.0 0.00 0.00 0.00 37 1007.6
20260905223909 99 100 2.6 7.8 0.00 0.00 0.00 37 1007.6
20260905222836 99 81 1.7 7.8 0.00 0.00 0.00 37 1007.7
20260905221828 99 92 2.6 7.8 0.00 0.00 0.00 38 1007.8
20260905220755 99 77 2.6 7.8 0.00 0.00 0.00 37 1007.9
20260905215815 100 108 1.7 7.8 0.00 0.00 0.00 37 1007.9
20260905214807 99 194 0.9 7.8 0.00 0.00 0.00 39 1007.9
20260905213752 99 158 2.6 7.0 0.00 0.00 0.00 38 1008.0
20260905212749 100 80 1.7 5.2 0.00 0.00 0.00 37 1007.9
20260905211808 101 200 1.7 5.2 0.00 0.00 0.00 37 1007.9
20260905210750 100 197 2.6 9.6 0.00 0.00 0.00 35 1008.0
20260905205719 101 138 3.5 9.6 0.00 0.00 0.00 36 1008.2
20260905204721 101 150 1.7 6.1 0.00 0.00 0.00 37 1008.4
20260905202619 100 168 2.6 8.7 0.00 0.00 0.00 39 1008.8
20260905201637 99 223 0.9 5.2 0.00 0.00 0.00 40 1009.0
20260905195457 99 217 2.6 7.0 0.00 0.00 0.00 40 1009.4
20260905194456 98 138 2.6 8.7 0.00 0.00 0.00 39 1009.6
20260905193458 98 143 1.7 8.7 0.00 0.00 0.00 39 1009.7
20260905192501 97 253 1.7 6.1 0.00 0.00 0.00 43 1009.9
20260905190314 97 174 2.6 7.8 0.00 0.00 0.00 42 1010.1
20260905185253 96 99 2.6 10.4 0.00 0.00 0.00 44 1010.3
20260905184224 96 181 2.6 10.4 0.00 0.00 0.00 44 1010.5
20260905183222 96 205 2.6 8.7 0.00 0.00 0.00 43 1010.8
20260905182203 95 286 2.6 7.8 0.00 0.00 0.00 45 1010.9
20260905181138 95 167 1.7 11.3 0.00 0.00 0.00 47 1011.2
20260905180143 95 198 3.5 11.3 0.00 0.00 0.00 46 1011.3
20260905175201 95 202 2.6 10.4 0.00 0.00 0.00 48 1011.5
20260905173106 93 134 1.7 9.6 0.00 0.00 0.00 52 1011.7
20260905172055 93 211 2.6 7.8 0.00 0.00 0.00 53 1011.9
20260905171100 93 159 2.6 7.8 0.00 0.00 0.00 50 1011.9
20260905170033 93 97 2.6 9.6 0.00 0.00 0.00 52 1012.0
20260905163916 91 221 1.7 8.7 0.00 0.00 0.00 55 1012.1
20260905162906 90 212 2.6 7.0 0.00 0.00 0.00 59 1012.2
20260905161858 90 153 0.9 5.2 0.00 0.00 0.00 58 1012.2
20260905160913 89 205 0.9 6.1 0.00 0.00 0.00 64 1012.2
20260905155915 88 250 0.9 6.1 0.00 0.00 0.00 65 1012.2
20260905154842 88 239 0.9 4.3 0.00 0.00 0.00 66 1012.2
20260905153853 87 244 0.9 4.3 0.00 0.00 0.00 69 1012.2
20260905152846 86 163 1.7 8.7 0.00 0.00 0.00 70 1012.1
20260905151840 86 205 2.6 8.7 0.00 0.00 0.00 71 1012.1
20260905150815 86 186 1.7 6.1 0.00 0.00 0.00 74 1012.2
20260905145756 85 226 1.7 8.7 0.00 0.00 0.00 76 1012.2
20260905144820 84 216 1.7 8.7 0.00 0.00 0.00 78 1012.1
20260905143825 83 211 1.7 7.0 0.00 0.00 0.00 81 1012.0
20260905141701 81 178 0.9 6.1 0.00 0.00 0.00 85 1012.0
20260905140654 81 175 1.7 5.2 0.00 0.00 0.00 86 1012.0
20260905135638 80 198 1.7 5.2 0.00 0.00 0.00 90 1011.8
20260905133531 78 181 0.9 4.3 0.00 0.00 0.00 92 1011.8
20260905132458 78 208 0.9 4.3 0.00 0.00 0.00 92 1011.7
20260905131507 78 173 0.9 3.5 0.00 0.00 0.00 93 1011.5
20260905130519 77 196 0.9 3.5 0.00 0.00 0.00 93 1011.4
20260905124436 77 153 0.9 3.5 0.00 0.00 0.00 94 1011.1
20260905123408 76 193 0.0 1.7 0.00 0.00 0.00 94 1011.1
20260905121301 76 196 0.0 0.0 0.00 0.00 0.00 93 1011.0
20260905120237 76 196 0.0 0.0 0.00 0.00 0.00 93 1011.0
20260905114027 76 205 0.9 2.6 0.00 0.00 0.00 93 1010.7
20260905113018 76 191 0.0 1.7 0.00 0.00 0.00 92 1010.7
20260905111949 76 191 0.0 1.7 0.00 0.00 0.00 92 1010.6
20260905110925 76 191 0.0 0.0 0.00 0.00 0.00 91 1010.6
20260905105906 76 191 0.0 1.7 0.00 0.00 0.00 91 1010.6
20260905104856 76 191 0.0 1.7 0.00 0.00 0.00 91 1010.5
20260905101702 77 167 0.9 3.5 0.00 0.00 0.00 91 1010.3
20260905095541 77 198 0.0 0.0 0.00 0.00 0.00 91 1010.4
20260905092253 77 171 1.7 6.1 0.00 0.00 0.00 90 1010.2
20260905090210 77 167 1.7 5.2 0.00 0.00 0.00 89 1010.3
20260905085227 78 165 1.7 5.2 0.00 0.00 0.00 89 1010.4
20260905083106 78 161 2.6 8.7 0.00 0.00 0.00 88 1010.4